Pompano Beach, FL

11:59 PM EDT on September 25, 2016 (GMT -0400)
Pompano Beach

Weather History for KPMP - October, 2012

Change the Weather History Date:

Wednesday, October 17, 2012

  Actual Average Record
Temperature  
Mean Temperature 76 °F -  
Max Temperature 82 °F 86 °F 95 °F (1974)
Min Temperature 69 °F 70 °F 53 °F (1977)
Cooling Degree Days 10    
Growing Degree Days 26 (Base 50)    
Moisture  
Dew Point 72 °F    
Average Humidity 89    
Maximum Humidity 100    
Minimum Humidity 72    
Precipitation  
Precipitation 1.12 in - - ()
Sea Level Pressure  
Sea Level Pressure 29.86 in    
Wind  
Wind Speed 5 mph (ESE)    
Max Wind Speed 17 mph    
Max Gust Speed 26 mph    
Visibility 9 miles    
Events Rain    
Averages and records for this station are not official NWS values.
T = Trace of Precipitation, MM = Missing Value Source: NWS Daily Summary

Daily Weather History Graph

Daily Weather History Graph

Search for Another Location

Airport or City:

Trip Planner

Search our weather history database for the weather conditions in past years. The results will help you decide how hot, cold, wet, or windy it might be!

Date:

Astronomy

Oct. 17, 2012 Rise Set
Actual Time 7:20 AM EDT 6:50 PM EDT
Civil Twilight 6:57 AM EDT 7:13 PM EDT
Nautical Twilight 6:30 AM EDT 7:40 PM EDT
Astronomical Twilight 6:03 AM EDT 8:07 PM EDT
Moon 9:36 AM EDT (10/17) 8:42 PM EDT (10/17)
Length of Visible Light 12h 15m
Length of Day
11h 29m
Waxing Crescent, 7% of the Moon is Illuminated
Oct 17
Waxing Crescent
Oct 21
First Quarter
Oct 29
Full
Nov 6
Last Quarter
Nov 13
New

Hourly Weather History & Observations

Time (EDT) Temp. Heat Index Dew Point Humidity Pressure Visibility Wind Dir Wind Speed Gust Speed Precip Events Conditions
12:53 AM 75.9 °F - 70.0 °F 82% 29.83 in 10.0 mi Calm Calm - N/A   Clear
1:53 AM 77.0 °F - 70.0 °F 79% 29.83 in 10.0 mi SE 4.6 mph - N/A   Partly Cloudy
2:15 AM 73.4 °F - 69.8 °F 88% 29.83 in 10.0 mi Calm Calm - N/A   Mostly Cloudy
2:33 AM 73.4 °F - 71.6 °F 94% 29.83 in 10.0 mi West 3.5 mph - N/A   Overcast
2:53 AM 73.9 °F - 71.1 °F 91% 29.83 in 10.0 mi West 4.6 mph - N/A   Overcast
3:33 AM 75.2 °F - 71.6 °F 89% 29.82 in 10.0 mi Calm Calm - N/A   Mostly Cloudy
3:53 AM 75.0 °F - 72.0 °F 90% 29.83 in 10.0 mi Calm Calm - N/A   Mostly Cloudy
4:53 AM 73.9 °F - 72.0 °F 93% 29.83 in 10.0 mi Calm Calm - N/A   Scattered Clouds
5:53 AM 75.0 °F - 72.0 °F 90% 29.85 in 10.0 mi Calm Calm - N/A   Overcast
6:53 AM 73.9 °F - 72.0 °F 93% 29.86 in 10.0 mi Calm Calm - N/A   Partly Cloudy
7:53 AM 73.9 °F - 72.0 °F 93% 29.87 in 10.0 mi Calm Calm - N/A   Mostly Cloudy
8:53 AM 77.0 °F - 73.0 °F 88% 29.89 in 10.0 mi SSW 3.5 mph - N/A   Mostly Cloudy
9:53 AM 79.0 °F - 72.0 °F 79% 29.89 in 10.0 mi ESE 8.1 mph - N/A   Clear
10:53 AM 81.0 °F 85.2 °F 72.0 °F 74% 29.90 in 10.0 mi SE 9.2 mph - N/A   Partly Cloudy
11:53 AM 82.0 °F 87.4 °F 73.0 °F 74% 29.89 in 10.0 mi SE 10.4 mph - N/A   Clear
12:53 PM 81.0 °F 85.8 °F 73.0 °F 77% 29.88 in 10.0 mi SE 10.4 mph - N/A   Clear
1:53 PM 81.0 °F 85.2 °F 72.0 °F 74% 29.86 in 10.0 mi SSE 10.4 mph - N/A   Mostly Cloudy
2:53 PM 81.0 °F 84.9 °F 71.1 °F 72% 29.84 in 10.0 mi SE 12.7 mph - N/A   Mostly Cloudy
3:53 PM 81.0 °F 85.2 °F 72.0 °F 74% 29.83 in 10.0 mi SSE 8.1 mph - N/A   Mostly Cloudy
4:53 PM 80.1 °F 84.2 °F 73.0 °F 79% 29.83 in 10.0 mi SSE 10.4 mph - N/A   Mostly Cloudy
5:53 PM 79.0 °F - 73.0 °F 82% 29.82 in 10.0 mi SSE 10.4 mph - N/A   Mostly Cloudy
6:53 PM 77.0 °F - 75.0 °F 94% 29.83 in 10.0 mi SSE 4.6 mph - 0.02 in Rain Light Rain
7:50 PM 73.4 °F - 73.4 °F 100% 29.84 in 5.0 mi NW 13.8 mph - 0.07 in Rain Heavy Rain
7:53 PM 73.0 °F - 71.1 °F 93% 29.85 in 4.0 mi NW 16.1 mph - 0.10 in Rain Heavy Rain
7:57 PM 71.6 °F - 71.6 °F 100% 29.86 in 2.5 mi West 11.5 mph - 0.06 in Rain Heavy Rain
8:02 PM 71.6 °F - 71.6 °F 100% 29.86 in 1.8 mi NW 10.4 mph 18.4 mph 0.18 in Rain Heavy Rain
8:16 PM 69.8 °F - 69.8 °F 100% 29.90 in 1.5 mi NW 17.3 mph 26.5 mph 0.48 in Rain Heavy Rain
8:36 PM 69.8 °F - 69.8 °F 100% 29.90 in 3.0 mi NNW 12.7 mph - 0.97 in Rain Rain
8:53 PM 70.0 °F - 70.0 °F 100% 29.91 in 9.0 mi North 12.7 mph - 1.00 in Rain Light Rain
9:04 PM 69.8 °F - 69.8 °F 100% 29.91 in 10.0 mi North 11.5 mph - 0.00 in Rain Light Rain
9:53 PM 70.0 °F - 70.0 °F 100% 29.91 in 10.0 mi NE 9.2 mph - 0.00 in   Overcast
10:53 PM 72.0 °F - 72.0 °F 100% 29.90 in 10.0 mi NE 6.9 mph - N/A   Overcast
11:53 PM 73.9 °F - 71.1 °F 91% 29.88 in 10.0 mi ENE 8.1 mph - N/A   Overcast